Wind_Speed
30 31 33 30 26 26 28 26 23 22 23 22 21 21 26 29 28 25 24 22 21 21 21 20 19 17 15 14 12 11 11 12 12 13 13 14 15 15 16 17 19 19
33 34 34 32 27 25 30 31 25 23 25 25 22 24 28 29 28 26 24 23 23 23 22 20 19 17 15 13 11 10 11 12 12 12 12 13 14 15 15 15 16 17
38 38 38 35 29 26 31 31 27 28 31 31 29 29 31 29 28 27 25 24 24 23 22 20 18 17 15 13 11 11 12 12 11 11 11 13 13 14 14 14 14 14
40 41 40 36 29 26 29 29 30 33 34 34 34 33 31 30 29 27 26 26 25 24 23 21 18 17 15 13 12 12 12 12 11 11 11 12 13 13 13 13 13 13
40 41 39 34 28 26 27 28 32 37 35 34 35 33 32 31 29 29 28 27 26 25 23 21 19 18 16 14 13 13 13 12 11 11 11 12 13 13 13 13 14 14
38 40 38 32 28 28 27 26 31 37 37 35 35 33 33 32 30 30 29 28 27 26 24 22 20 19 17 15 14 14 13 12 11 11 11 13 14 14 15 15 15 14
35 39 37 31 29 29 27 25 30 38 38 36 35 34 33 32 31 31 30 29 28 26 25 23 21 20 18 16 15 14 13 12 11 11 13 14 15 16 16 16 15 15
34 35 32 30 29 28 27 26 29 38 39 36 36 35 34 33 32 32 31 30 29 27 26 24 22 20 18 17 16 14 13 12 12 12 14 16 17 17 17 16 16 15
32 31 30 31 30 28 29 26 28 37 40 36 36 35 35 34 33 33 32 31 30 28 27 25 23 21 19 17 16 14 13 13 13 14 16 17 18 18 18 17 16 16
32 32 32 33 31 29 30 27 28 37 40 37 37 36 35 36 34 33 33 31 31 29 28 26 24 22 20 18 16 14 13 13 14 15 16 18 18 19 18 18 17 17
34 33 33 34 31 29 31 29 28 36 40 38 37 37 36 36 35 34 33 32 32 31 29 27 25 23 21 19 17 15 14 14 15 16 17 18 19 18 18 18 18 18
35 34 34 34 33 30 31 29 28 35 40 38 37 38 37 37 36 36 35 33 33 32 30 28 26 24 22 19 18 16 15 15 16 17 18 18 18 18 18 18 18 18
36 34 33 35 35 31 29 28 28 33 37 37 37 37 37 38 38 37 36 34 33 32 30 28 26 24 22 20 18 17 17 17 17 18 18 19 19 19 18 18 18 18
38 34 32 35 35 31 29 29 28 29 33 37 37 37 38 39 38 38 37 35 34 33 30 28 26 24 23 21 19 18 18 18 18 19 19 19 19 19 19 19 18 18
39 33 31 34 34 31 34 35 30 29 34 37 37 37 38 38 39 39 37 36 35 34 32 30 27 25 23 22 21 20 19 19 20 20 20 20 20 20 19 19 19 18
38 32 29 35 36 33 36 39 37 35 36 37 38 38 38 38 39 39 38 37 36 35 33 31 28 26 24 22 21 20 20 21 21 21 21 21 22 21 21 20 20 19
37 31 29 37 38 32 34 41 41 39 38 37 37 38 38 39 39 39 38 38 37 37 35 32 29 26 24 22 21 19 20 22 23 23 23 22 22 22 22 22 21 19
33 27 27 36 35 28 33 41 41 39 38 37 38 38 37 38 39 39 39 38 38 38 36 33 30 27 25 23 22 20 20 22 23 24 24 23 23 23 23 23 21 20
31 26 28 33 31 27 34 41 40 39 39 38 38 37 36 38 39 39 40 39 39 38 36 33 31 28 26 24 22 22 21 22 24 25 24 24 24 24 23 23 22 22
33 29 29 32 31 31 37 41 40 39 39 40 39 36 35 38 39 40 40 40 40 38 36 34 32 29 27 25 23 23 23 23 24 24 24 25 24 24 24 24 23 23
35 32 32 34 35 34 37 41 40 35 33 37 38 37 38 39 39 40 41 40 40 39 37 36 34 30 27 26 25 24 24 24 24 24 25 24 24 24 24 24 24 24
35 34 33 34 36 35 36 39 37 30 28 34 38 36 37 39 40 41 42 41 40 40 39 38 35 31 29 27 26 25 25 25 25 25 25 25 25 25 24 24 24 24
34 34 34 34 36 36 36 38 38 32 29 33 36 34 34 37 39 39 39 40 41 41 40 38 35 33 31 29 27 27 27 27 27 26 26 26 26 25 25 25 25 23
33 34 34 35 36 36 35 36 38 37 35 36 35 33 35 39 40 36 34 37 41 41 39 38 37 36 33 31 29 29 30 30 29 29 29 27 26 26 25 25 25 22
33 34 35 35 35 35 35 35 35 35 37 38 36 33 35 38 38 36 34 35 38 40 40 39 38 37 35 33 31 30 31 32 31 31 30 29 28 27 26 26 25 22
33 35 35 36 36 35 36 36 36 35 35 36 36 35 35 33 32 32 34 36 38 39 41 41 39 37 36 34 33 32 32 33 33 32 31 29 28 27 27 27 27 24
Wind_Direction
201 204 207 207 207 208 205 204 203 200 200 202 202 208 214 214 211 210 211 210 208 208 208 210 214 219 226 230 230 229 228 225 226 228 229 233 235 236 238 238 238 239
202 204 207 207 206 207 208 208 205 202 204 205 204 212 220 218 212 210 210 208 206 206 208 210 214 219 223 225 224 224 225 224 225 228 231 234 236 237 238 239 238 236
204 205 208 209 207 207 208 208 208 209 211 211 212 218 222 219 214 212 210 208 206 206 207 210 214 217 219 218 217 218 221 224 227 233 237 236 236 237 236 235 232 228
204 205 208 209 208 207 206 207 210 213 215 214 215 219 220 219 216 212 209 208 207 207 208 210 212 214 214 212 212 213 218 223 228 233 235 235 232 230 229 225 220 217
203 203 206 206 206 205 205 206 209 212 213 213 214 216 217 217 214 210 207 207 207 208 209 209 211 211 210 209 209 212 216 221 227 229 227 227 224 219 216 212 208 206
201 202 203 203 204 204 202 203 208 210 212 213 213 214 214 214 212 210 208 206 207 208 208 208 209 208 207 207 208 211 215 219 224 223 219 217 215 209 205 203 201 198
199 201 201 199 202 203 200 200 206 210 213 213 211 212 213 212 211 210 209 208 208 207 208 208 208 206 206 207 208 210 213 216 218 216 213 211 209 204 199 197 195 194
198 200 198 197 200 201 200 200 204 208 211 211 210 211 213 213 211 209 209 208 207 207 207 208 208 207 207 207 208 210 211 214 214 211 210 208 205 201 197 194 192 193
197 197 196 197 198 199 200 200 201 206 209 210 209 210 212 212 211 209 208 207 206 206 207 207 207 208 208 207 209 211 212 213 213 210 209 207 204 201 197 194 192 193
196 197 197 198 198 199 200 198 198 203 207 209 209 210 211 211 211 209 207 206 205 204 205 206 206 207 207 207 209 210 212 213 212 209 208 208 205 203 200 196 193 194
195 196 197 198 198 198 199 196 195 201 205 207 209 210 211 210 209 208 207 206 205 205 204 204 206 206 206 207 208 208 209 212 212 209 207 207 207 206 203 200 197 197
195 196 198 198 198 198 197 194 193 198 202 205 208 209 209 209 208 207 207 207 206 206 205 204 205 205 206 207 206 205 206 208 210 209 206 205 206 207 205 203 202 200
196 197 198 199 198 197 194 192 192 195 199 203 206 208 207 207 207 208 207 206 206 206 205 204 204 204 205 205 204 203 204 204 207 208 206 205 205 205 205 206 205 202
199 199 198 199 197 194 193 192 191 192 196 200 204 206 207 207 208 208 206 205 206 207 205 203 203 203 203 202 202 203 203 203 205 206 204 204 203 204 206 206 205 203
199 197 196 196 194 193 194 194 191 191 196 200 203 206 207 208 209 208 205 203 205 205 204 202 201 203 205 203 201 201 202 203 204 205 203 202 201 202 204 204 203 202
198 194 190 191 191 192 193 193 192 194 198 201 204 207 208 207 207 206 204 203 203 203 203 201 201 205 207 206 204 203 202 201 202 203 202 201 200 199 200 201 200 200
197 192 189 191 191 191 192 191 193 196 198 200 202 206 208 207 205 203 203 203 202 202 201 200 201 205 204 203 203 204 204 201 201 201 200 199 200 199 198 198 197 197
194 188 187 190 189 188 189 190 192 196 198 198 200 204 205 204 203 202 202 202 202 202 201 199 201 203 202 200 201 203 204 202 200 199 198 198 199 199 198 196 194 194
190 186 186 187 187 186 187 188 190 194 197 199 200 202 202 200 201 202 202 202 202 201 201 200 201 201 201 199 200 201 202 201 201 200 199 199 200 199 197 195 192 192
190 188 186 185 185 185 185 187 189 192 196 199 199 198 198 199 199 200 201 202 202 201 201 201 201 201 199 198 199 200 199 199 200 201 200 201 202 200 199 197 195 194
190 188 185 184 184 184 184 186 188 189 193 198 199 197 198 199 199 200 201 202 202 202 201 202 202 200 198 198 199 198 197 198 200 201 201 202 203 202 201 201 200 197
189 186 184 182 182 182 184 186 187 187 190 196 199 199 198 198 200 202 201 201 200 200 200 201 201 199 197 197 197 195 194 196 199 201 201 203 204 203 202 203 202 201
186 184 182 181 181 183 184 185 186 187 190 194 197 196 195 197 200 201 200 200 200 200 199 200 201 198 196 195 195 194 193 195 198 200 201 203 203 202 203 203 202 204
185 183 182 181 183 184 185 185 186 188 192 196 196 194 196 200 201 198 197 199 200 199 198 201 202 198 194 193 193 193 194 196 197 198 198 201 201 201 203 204 204 208
183 183 182 182 184 186 186 186 188 190 193 195 196 196 199 201 200 197 196 198 199 198 198 202 203 197 192 193 193 192 194 197 197 196 196 197 198 200 202 204 206 209
182 182 183 185 186 187 187 188 190 192 193 194 195 198 200 200 198 196 194 195 198 198 197 200 202 197 192 193 193 191 195 199 198 196 195 195 196 199 200 202 206 208
Height
776 780 782 785 788 790 792 795 797 800 802 805 808 809 809 810 813 815 816 818 821 823 825 827 829 831 832 833 834 835 836 837 838 839 840 841 842 843 844 845 846 847
771 775 778 781 785 786 787 791 794 797 799 802 804 806 807 809 811 813 814 816 819 821 823 826 827 829 830 831 832 833 834 836 837 838 839 840 841 842 843 843 844 845
767 771 774 777 780 782 784 788 791 793 796 798 800 803 805 807 808 810 813 814 817 819 821 824 826 827 828 829 831 832 833 834 835 836 837 838 839 840 841 842 843 844
763 766 770 773 777 779 781 784 787 790 793 795 797 800 802 805 806 808 811 813 815 817 819 822 824 825 827 828 829 830 831 833 834 835 836 836 837 838 839 840 841 842
758 762 766 770 774 776 777 780 783 786 789 792 794 797 800 802 804 806 809 811 813 815 817 820 822 823 825 826 827 828 830 831 832 833 834 835 836 837 838 839 840 841
755 758 761 766 771 772 774 777 780 783 786 789 792 795 798 800 802 804 807 808 810 812 815 817 819 821 822 824 825 827 828 829 830 831 832 833 834 835 837 838 839 840
752 754 757 762 766 768 770 774 776 779 783 786 789 792 795 798 800 802 804 806 808 810 812 815 817 818 820 822 823 824 826 827 828 829 830 831 833 834 835 837 838 839
749 752 755 759 762 764 767 770 773 776 780 783 786 789 792 795 797 799 802 804 805 807 810 812 814 816 818 819 821 822 824 825 826 827 829 830 831 833 834 836 837 838
747 750 752 755 757 760 763 767 769 772 776 780 783 786 789 792 794 797 799 801 803 805 807 810 812 814 815 817 819 820 822 823 825 826 827 829 830 832 833 835 836 837
743 746 749 751 753 756 759 763 765 768 773 776 779 783 786 789 791 794 796 798 800 802 804 807 809 811 813 815 817 819 820 822 823 824 826 828 830 831 833 834 835 836
738 742 745 746 748 752 756 760 762 765 769 773 776 780 782 785 788 791 793 795 797 799 801 804 807 809 811 813 815 817 818 820 821 823 825 827 829 830 831 833 834 835
734 737 739 741 745 748 753 756 759 761 766 769 773 776 779 782 785 787 790 792 794 797 799 801 804 806 808 810 812 814 816 818 820 821 823 825 827 829 830 831 832 833
729 731 734 738 742 745 749 753 756 758 762 766 769 773 776 779 782 784 786 789 792 794 796 799 801 804 806 808 810 812 814 817 818 820 822 824 826 827 829 830 831 833
724 727 731 735 739 742 746 750 753 756 760 763 766 769 772 775 778 781 784 786 789 791 794 796 799 801 804 806 808 811 813 815 817 819 821 823 825 826 828 829 830 832
721 725 729 733 736 739 743 746 749 753 757 760 763 766 769 772 775 778 781 783 786 789 791 793 796 798 801 803 806 808 811 813 816 818 820 822 823 825 827 828 830 831
719 722 725 728 732 735 739 743 746 750 754 757 760 764 766 770 773 775 778 780 782 786 788 790 793 795 798 801 803 806 808 811 813 815 818 820 822 823 825 827 829 831
716 719 721 724 728 733 736 739 743 748 751 754 758 761 763 766 769 772 775 777 779 782 785 787 790 792 796 799 801 804 806 808 811 813 815 818 820 822 824 826 828 830
713 715 718 722 726 730 733 736 741 745 749 752 755 758 760 763 766 769 771 774 777 779 782 784 786 790 793 797 799 802 804 806 809 811 813 816 818 820 822 824 826 829
709 712 716 720 723 727 730 734 739 743 746 749 752 755 757 760 763 765 768 771 773 776 779 782 784 787 791 794 797 799 802 804 807 809 811 814 816 818 820 822 825 827
706 709 713 717 721 725 729 732 736 739 743 746 749 753 755 757 760 762 765 768 770 773 777 779 781 784 788 791 794 797 800 802 805 807 809 812 814 816 818 820 822 825
702 706 710 714 718 723 727 730 733 737 741 744 747 749 751 754 757 759 761 764 767 771 774 776 778 781 785 788 791 794 797 800 803 805 807 810 812 814 816 819 821 823
699 703 707 711 715 719 723 726 730 734 738 741 744 747 749 751 754 756 758 761 764 768 771 774 776 779 782 785 789 792 795 798 801 804 806 808 810 812 814 817 819 821
696 700 704 708 711 715 719 722 726 730 734 738 741 744 747 749 750 753 756 758 761 764 768 771 773 775 778 782 786 789 792 795 798 801 804 805 808 810 812 814 816 818
693 697 701 705 708 712 715 719 723 727 730 734 738 741 743 745 747 751 754 756 758 761 764 767 769 772 775 779 782 786 789 792 795 798 801 803 805 808 810 812 814 816
691 695 699 702 706 709 712 717 721 724 726 730 735 738 739 742 744 747 751 754 756 758 761 764 767 770 774 776 779 782 786 789 792 795 798 800 803 806 808 811 813 815
688 692 696 699 703 706 710 714 717 721 724 727 731 734 737 740 743 745 747 750 753 755 757 760 763 768 772 775 777 779 783 786 789 792 795 798 801 804 806 808 811 813